Weather History for Tucson, AZ

Change the Weather History Date:

Thursday, May 2, 2013

  Actual Average Record
Temperature  
Mean Temperature 76 °F 72 °F  
Max Temperature 93 °F 87 °F 102 °F (1947)
Min Temperature 59 °F 57 °F 39 °F (1967)
Degree Days  
Heating Degree Days 0 1  
Month to date heating degree days 0 2  
Since 1 July heating degree days 1363 1508  
Cooling Degree Days 11 7  
Month to date cooling degree days 22 14  
Year to date cooling degree days 295 168  
Growing Degree Days 25 (Base 50)    
Moisture  
Dew Point 16 °F    
Average Humidity 14    
Maximum Humidity 23    
Minimum Humidity 4    
Precipitation  
Precipitation 0.00 in 0.00 in 0.17 in (1904)
Month to date precipitation 0.00 0.01  
Year to date precipitation 1.73 2.85  
Snow  
Snow 0.00 in - - ()
Month to date snowfall 0.0  
Snow Depth 0.00 in    
Sea Level Pressure  
Sea Level Pressure 29.97 in    
Wind  
Wind Speed 9 mph (East)    
Max Wind Speed 25 mph    
Max Gust Speed 33 mph    
Visibility 10 miles    
Events      
T = Trace of Precipitation, MM = Missing Value Source: NWS Daily Summary

Daily Weather History Graph

Daily Weather History Graph

Search for Another Location

Airport:

Trip Planner

Search our weather history database for the weather conditions in past years. The results will help you decide how hot, cold, wet, or windy it might be!

Date:

Astronomy

May. 02, 2013 Rise Set
Actual Time 5:36 AM MST 7:05 PM MST
Civil Twilight 5:10 AM MST 7:31 PM MST
Nautical Twilight 4:39 AM MST 8:02 PM MST
Astronomical Twilight 4:06 AM MST 8:35 PM MST
Moon 1:00 AM MST (5/2) 12:23 PM MST (5/2)
Length of Visible Light 14h 21m
Length of Day
13h 29m
Waning Gibbous, 46% of the Moon is Illuminated
May 2
Waning Gibbous
May 9
New
May 17
First Quarter
May 24
Full
May 31
Last Quarter

Hourly Weather History & Observations

Time (MST) Temp. Dew Point Humidity Pressure Visibility Wind Dir Wind Speed Gust Speed Precip Events Conditions
12:53 AM 70.0 °F 21.0 °F 16% 29.93 in 10.0 mi West 5.8 mph - N/A   Clear
1:53 AM 68.0 °F 21.9 °F 17% 29.93 in 10.0 mi WSW 5.8 mph - N/A   Clear
2:53 AM 64.9 °F 21.0 °F 19% 29.94 in 10.0 mi SSE 5.8 mph - N/A   Clear
3:53 AM 63.0 °F 23.0 °F 22% 29.96 in 10.0 mi WSW 3.5 mph - N/A   Clear
4:53 AM 63.0 °F 23.0 °F 22% 29.96 in 10.0 mi SSW 3.5 mph - N/A   Clear
5:53 AM 59.0 °F 21.9 °F 24% 30.00 in 10.0 mi SE 5.8 mph - N/A   Clear
6:53 AM 64.0 °F 21.0 °F 19% 30.03 in 10.0 mi ESE 8.1 mph - N/A   Clear
7:53 AM 73.0 °F 19.0 °F 13% 30.03 in 10.0 mi Calm Calm - N/A   Clear
8:53 AM 77.0 °F 18.0 °F 11% 30.03 in 10.0 mi NW 5.8 mph - N/A   Clear
9:53 AM 81.0 °F 8.1 °F 6% 30.04 in 10.0 mi Calm Calm - N/A   Clear
10:53 AM 84.0 °F 8.1 °F 6% 30.03 in 10.0 mi Variable 6.9 mph - N/A   Clear
11:53 AM 87.1 °F 5.0 °F 4% 30.00 in 10.0 mi North 8.1 mph - N/A   Clear
12:53 PM 89.1 °F 6.1 °F 4% 29.98 in 10.0 mi Variable 4.6 mph - N/A   Clear
1:53 PM 90.0 °F 8.1 °F 5% 29.96 in 10.0 mi NNW 6.9 mph - N/A   Clear
2:53 PM 91.0 °F 12.0 °F 5% 29.94 in 10.0 mi East 8.1 mph - N/A   Clear
3:53 PM 91.9 °F 12.9 °F 5% 29.91 in 10.0 mi Variable 5.8 mph - N/A   Clear
4:53 PM 91.0 °F 12.9 °F 6% 29.91 in 10.0 mi North 6.9 mph - N/A   Clear
5:53 PM 89.1 °F 12.0 °F 6% 29.92 in 10.0 mi ENE 8.1 mph - N/A   Clear
6:53 PM 86.0 °F 14.0 °F 7% 29.92 in 10.0 mi ENE 11.5 mph - N/A   Clear
7:53 PM 82.9 °F 14.0 °F 8% 29.93 in 10.0 mi East 12.7 mph - N/A   Clear
8:53 PM 80.1 °F 12.0 °F 8% 29.95 in 10.0 mi East 9.2 mph - N/A   Clear
9:53 PM 77.0 °F 19.9 °F 12% 29.97 in 10.0 mi ESE 20.7 mph 28.8 mph N/A   Clear
10:53 PM 73.9 °F 21.0 °F 14% 29.99 in 10.0 mi ESE 24.2 mph 27.6 mph N/A   Clear
11:53 PM 71.1 °F 21.0 °F 15% 30.00 in 10.0 mi ESE 26.5 mph 33.4 mph N/A   Clear